Time,B instrument,Bx,By,Bz,sigma B,Ion instrument,Status,Tp_par,Tp_perp,carrot,r_sun,clat,clong,earth_he_angle,n_p,vp_x,vp_y,vp_z,vth_p_par,vth_p_perp
1980-07-07 00:00:21,1,3.61429,2.07143,-3.5,0.619084,1,1,98763.8,89119.1,1696,0.72376329,5.18606,88.60321,104.90398,11.3533,379.132,-42.292,11.9124,40.3791,38.3569
1980-07-07 00:01:42,1,4.3,-0.8,-3.44286,0.416986,1,1,84895.4,74714.2,1696,0.72377002,5.1859808,88.591705,104.90421,10.1771,373.485,-27.6868,12.9385,37.4369,35.1204
1980-07-07 00:03:03,1,3.73333,-0.916667,-3.43333,0.453689,1,1,92207.8,75266.9,1696,0.72378349,5.1858234,88.580475,104.90468,10.7941,375.709,-27.0495,7.52061,39.0159,35.2501
1980-07-07 00:04:24,1,1.7,1.12857,-5.3,0.917628,1,1,78570.2,58397.5,1696,0.72379023,5.1857443,88.56897,104.90491,9.10198,387.041,-38.3283,23.5867,36.0153,31.0495
1980-07-07 00:05:45,1,3.56667,-0.416667,-5.0,0.311359,1,1,71922.8,46975.9,1696,0.72379696,5.1856661,88.557495,104.90514,7.76264,376.143,-22.3005,20.9619,34.4581,27.8481
1980-07-07 00:07:06,1,3.38333,0.5,-4.78333,0.419656,1,1,80199.6,63996.0,1696,0.72381043,5.1855078,88.546234,104.90561,9.51155,378.263,-31.7836,13.0193,36.3868,32.5038
1980-07-07 00:08:27,1,3.07143,-0.314286,-4.74286,0.555492,1,1,76338.4,75624.8,1696,0.72381723,5.1854296,88.530853,104.90584,9.81729,378.287,-31.5425,18.5233,35.5001,35.3338
1980-07-07 00:09:48,1,3.18333,-0.733333,-4.98333,0.414327,1,1,76833.3,58702.7,1696,0.72382396,5.1853504,88.519379,104.90608,8.44917,372.928,-22.5012,18.9741,35.615,31.1306
1980-07-07 00:11:09,1,2.41429,-0.914286,-4.82857,0.327638,1,1,92511.5,64655.8,1696,0.72383744,5.1851931,88.508118,104.90654,9.50118,380.182,-22.9526,16.8135,39.0801,32.6709
1980-07-07 00:12:30,1,3.94286,-1.44286,-3.98571,0.776702,1,1,72787.5,77639.5,1696,0.72384417,5.1851139,88.496643,104.90678,9.89497,374.124,-19.0848,11.484,34.6646,35.8013
1980-07-07 01:32:08,1,5.8,-3.2,-3.7,0.0,1,1,59674.0,49230.5,1696,0.72438347,5.1788139,87.780975,104.92549,8.07061,378.35,-26.9924,23.8498,31.387,28.5085
1980-07-07 01:36:11,-1,nan,nan,nan,nan,1,3,nan,nan,1696,0.72441041,5.1784992,87.746735,104.92642,nan,376.287,-23.5994,31.9221,nan,nan
1980-07-07 01:37:32,1,3.88571,-1.22857,-5.4,0.540219,1,1,61532.4,48831.0,1696,0.72441715,5.1784201,87.73526,104.92665,8.22297,374.467,-17.6518,29.7709,31.872,28.3926
1980-07-07 01:38:53,1,3.65714,-1.72857,-4.7,0.808122,1,1,73896.8,41543.8,1696,0.72442389,5.1783419,87.723755,104.92688,8.80666,371.252,-12.5615,23.1898,34.9277,26.1885
1980-07-07 01:40:14,1,4.7,-1.0,-4.08571,0.593846,1,1,77289.9,33742.4,1696,0.72443736,5.1781845,87.708618,104.92735,9.24735,372.294,-26.3238,22.8793,35.7206,23.6018
1980-07-07 01:41:36,1,3.55,-1.6,-5.2,0.390512,1,1,78787.7,44950.8,1696,0.72444409,5.1781054,87.697113,104.92758,9.33691,376.58,-19.5516,27.559,36.0651,27.2412
1980-07-07 01:42:57,1,4.05,-2.0,-5.73333,0.323608,1,1,58603.4,46211.2,1696,0.72445083,5.1780262,87.685638,104.92781,8.86699,375.813,-19.4455,31.583,31.1042,27.6205
1980-07-07 01:44:18,1,3.8,-0.966667,-6.0,0.149071,1,1,59997.7,44943.5,1696,0.7244643,5.1778688,87.674377,104.92828,8.6417,375.963,-20.8117,32.9107,31.4721,27.239
1980-07-07 01:45:39,1,2.15714,-1.02857,-6.45714,0.516661,1,1,71967.7,40672.1,1696,0.72447103,5.1777906,87.662903,104.92851,7.94801,389.423,-26.0997,34.5806,34.4689,25.9123
1980-07-07 01:47:00,1,2.31429,-1.48571,-6.35714,0.380655,1,1,68807.7,42475.0,1696,0.7244845,5.1776333,87.647736,104.92899,8.44266,388.603,-20.0521,33.3362,33.7036,26.4804
1980-07-07 01:48:21,1,3.78571,-0.857143,-5.94286,0.363093,1,1,58476.0,45303.8,1696,0.72449124,5.1775541,87.636261,104.92921,8.63051,376.551,-22.3543,32.627,31.0704,27.348
1980-07-07 01:49:42,1,3.71429,-1.38571,-5.81429,0.79334,1,1,55387.4,39265.7,1696,0.72449797,5.1774759,87.624756,104.92944,7.96941,375.8,-14.9124,30.2243,30.2387,25.4603
1980-07-07 01:51:03,1,2.4,-0.142857,-6.25714,1.03884,1,1,55108.6,47346.1,1696,0.72451144,5.1773186,87.613525,104.92992,7.88134,379.641,-13.0368,32.4712,30.1625,27.9576
1980-07-07 01:52:24,1,2.58571,-0.742857,-6.55714,0.510302,1,1,76851.1,39619.4,1696,0.72451818,5.1772394,87.60202,104.93015,8.30032,387.753,-22.2591,33.022,35.6191,25.5748
1980-07-07 01:53:45,1,3.3,-2.36667,-6.11667,0.440013,1,1,55059.6,48093.0,1696,0.72452492,5.1771603,87.590546,104.93039,8.37645,378.182,-9.86362,31.0794,30.1491,28.1773
1980-07-07 01:55:06,1,3.21667,-0.116667,-6.36667,0.491596,1,1,59137.0,50913.0,1696,0.72453839,5.1770029,87.575378,104.93085,9.17,381.073,-34.3068,35.983,31.2455,28.9916
1980-07-07 01:56:27,1,5.28571,0.6,-5.3,0.96574,1,1,57770.8,37143.7,1696,0.72454512,5.1769247,87.563904,104.93108,7.97825,366.954,-28.6006,29.512,30.8825,24.7628
1980-07-07 01:57:48,-1,nan,nan,nan,nan,1,4,nan,nan,1696,0.72455186,5.1768456,87.552429,104.93132,nan,nan,nan,nan,nan,nan
1980-07-07 01:59:09,1,3.01429,-2.84286,-6.07143,2.30651,1,1,47757.0,47581.3,1696,0.72456533,5.1766882,87.541168,104.93178,8.5417,379.659,-26.2764,36.8063,28.0787,28.027
1980-07-07 02:00:30,1,1.35714,-3.38571,-6.2,1.79148,1,1,47279.1,48712.1,1696,0.72457212,5.17661,87.529694,104.93202,8.29875,392.819,-2.39349,34.4448,27.9378,28.3581
1980-07-07 02:01:51,1,0.7375,3.0125,-6.4625,0.347536,1,1,62546.4,46826.1,1696,0.72457886,5.1765308,87.514282,104.93225,8.91324,392.442,-43.8785,38.3958,32.1336,27.8036
1980-07-07 02:03:12,1,1.82857,1.01429,-6.72857,0.542105,1,1,61803.4,45002.5,1696,0.72459227,5.1763735,87.503021,104.93271,8.356,381.133,-29.1603,39.8672,31.9422,27.2569
1980-07-07 02:04:33,1,2.34286,-0.328571,-7.0,0.582044,1,1,76913.6,36366.8,1696,0.724599,5.1762943,87.491547,104.93294,7.43152,384.108,-26.6878,38.9288,35.6336,24.5025
1980-07-07 02:05:54,1,1.25714,0.571429,-7.1,0.419426,1,1,72674.3,48007.4,1696,0.72460574,5.1762152,87.480072,104.93318,9.64309,393.474,-35.5852,40.4995,34.6376,28.1522
1980-07-07 02:07:15,1,2.0,-0.728571,-7.22857,0.368117,1,1,83097.5,49164.0,1696,0.72461921,5.1760578,87.468811,104.93364,8.39233,385.752,-23.7456,40.3762,37.0384,28.4893
1980-07-07 02:08:36,1,0.657143,-1.48571,-7.1,0.818161,1,1,117007.0,48657.1,1696,0.72462595,5.1759796,87.457306,104.93387,9.02702,395.689,-19.8064,36.8131,43.9505,28.342
1980-07-07 02:09:57,1,1.74286,-3.08571,-6.57143,0.4,1,1,54849.2,50019.5,1696,0.72463268,5.1759005,87.441925,104.9341,8.50277,385.485,-15.0086,40.0871,30.0914,28.7361
1980-07-07 02:11:18,1,2.08571,-2.02857,-6.67143,0.629869,1,1,53544.2,42554.7,1696,0.72464615,5.1757431,87.430664,104.93457,7.96306,385.081,-16.4804,40.8465,29.7313,26.5052
1980-07-07 02:12:39,1,2.62857,-1.28571,-6.65714,0.939605,1,1,44990.0,48492.6,1696,0.72465289,5.1756639,87.419189,104.9348,10.0974,377.327,-14.2906,39.2409,27.2531,28.2941
1980-07-07 02:14:00,1,3.63333,-0.65,-6.71667,0.556277,1,1,68274.7,38509.4,1696,0.72466636,5.1755066,87.407928,104.93526,7.22621,381.056,-21.8769,39.921,33.5728,25.214
1980-07-07 02:15:21,1,5.33333,-2.83333,-4.88333,0.745542,1,1,51953.3,34980.1,1696,0.72467309,5.1754284,87.396454,104.9355,6.97212,367.491,-4.44432,24.2598,29.2863,24.0308
1980-07-07 02:16:42,1,4.9,-1.71667,-5.55,0.332499,1,1,51165.2,38899.9,1696,0.72467983,5.1753492,87.384949,104.93573,7.98585,365.294,-17.0321,31.7115,29.0633,25.3415
1980-07-07 02:18:03,1,4.67143,-1.24286,-6.1,0.23035,1,1,48548.8,49399.2,1696,0.7246933,5.1751919,87.369781,104.93619,8.54122,370.425,-18.9398,36.1227,28.3105,28.5574
1980-07-07 02:19:24,1,3.7,-1.37143,-6.35714,0.445842,1,1,50179.5,44847.4,1696,0.72470003,5.1751127,87.358307,104.93642,8.19114,378.814,-17.4283,40.6711,28.782,27.2099
1980-07-07 02:20:45,1,4.9,-1.0,-6.1,0.648074,1,1,44854.9,45800.7,1696,0.72470677,5.1750345,87.346832,104.93666,7.66328,368.947,-19.7534,35.0642,27.2121,27.4976
1980-07-07 02:22:06,1,3.75714,-0.9,-6.27143,0.8841,1,1,53585.0,43852.9,1696,0.72472018,5.1748762,87.335571,104.93712,8.15601,375.409,-22.9418,40.3995,29.7427,26.9065
1980-07-07 02:23:27,1,2.54286,3.38571,-5.48571,2.07207,1,1,62202.5,40112.6,1696,0.72472692,5.174798,87.324066,104.93735,8.11359,383.295,-52.6149,33.9289,32.0451,25.7335
1980-07-07 02:24:47,1,3.71429,-1.07143,-5.81429,1.22191,1,1,63052.3,43473.7,1696,0.72473365,5.1747189,87.308685,104.93758,8.09843,371.875,-26.728,36.9417,32.2633,26.7899
1980-07-07 02:26:08,1,3.2,-2.6,-5.65714,0.979588,1,1,44478.9,51326.7,1696,0.72474712,5.1745615,87.297424,104.93805,8.24817,375.306,-19.8538,36.1412,27.0979,29.1092
1980-07-07 02:27:29,1,3.01429,-2.47143,-5.64286,1.56205,1,1,38432.6,45657.2,1696,0.72475386,5.1744823,87.28595,104.93828,8.84584,358.165,2.76813,32.4605,25.1888,27.4544
1980-07-07 02:28:50,1,2.1,-3.47143,-6.05714,0.62922,1,1,52043.9,49144.6,1696,0.72476059,5.1744041,87.274445,104.93851,9.17194,386.456,-7.54845,34.5855,29.3118,28.4836
1980-07-07 02:30:12,1,4.88333,-2.33333,-5.08333,0.385141,1,1,47185.1,44271.4,1696,0.72477406,5.1742468,87.263214,104.93898,8.07738,368.324,-14.223,30.8955,27.91,27.0346
1980-07-07 02:31:33,1,4.02857,-1.22857,-5.88571,0.423783,1,1,46774.0,46668.8,1696,0.7247808,5.1741676,87.251709,104.93921,7.50813,370.058,-20.3961,33.6894,27.7882,27.7569
1980-07-07 02:32:54,1,7.9,-1.67143,-0.885714,0.38226,1,1,89867.3,49961.0,1696,0.72478753,5.1740885,87.236328,104.93944,10.1974,349.765,-15.9579,0.0306966,38.5176,28.7193
1980-07-07 02:34:15,1,8.61429,-0.828571,0.742857,0.35051,1,1,31702.2,50855.0,1696,0.724801,5.1739311,87.225067,104.9399,7.68113,346.547,-19.9397,-9.17119,22.8772,28.9751
1980-07-07 02:35:36,1,8.75,0.616667,1.58333,1.19525,1,1,44772.5,57096.1,1696,0.72480774,5.1738529,87.213593,104.94014,8.78723,351.551,-33.7282,-20.0808,27.1871,30.7016
1980-07-07 02:36:57,1,7.7,-1.4,-2.35,0.403113,1,1,57396.8,50307.0,1696,0.72481447,5.1737738,87.202087,104.94037,8.7488,352.965,-21.0566,8.35015,30.7824,28.8185
1980-07-07 02:38:18,1,7.61667,-1.08333,-2.38333,0.656379,1,1,39055.7,52891.8,1696,0.72482795,5.1736164,87.190826,104.94083,8.6664,352.798,-25.3538,11.6378,25.3922,29.5496
1980-07-07 02:39:39,1,6.63333,0.4,-3.78333,0.688194,1,1,66272.7,49104.5,1696,0.72483468,5.1735373,87.175446,104.94106,9.07055,357.839,-32.5921,23.7414,33.0769,28.472
1980-07-07 02:41:00,1,7.46667,1.33333,-2.65,0.605759,1,1,61011.0,53134.8,1696,0.72484809,5.1733799,87.164185,104.94153,9.44549,354.074,-41.8638,3.15851,31.7367,29.6174
1980-07-07 02:42:21,1,6.88571,1.37143,-2.94286,1.78726,1,1,88321.3,48389.7,1696,0.72485483,5.1733007,87.15271,104.94176,8.71709,360.777,-39.3788,18.5401,38.1848,28.2641
1980-07-07 02:43:42,1,7.88571,1.91429,-1.28571,0.961079,1,1,48773.8,49823.0,1696,0.72486156,5.1732225,87.141205,104.94199,8.87536,355.44,-37.2003,20.4624,28.376,28.6796
1980-07-07 02:45:03,1,5.48571,-0.5,-5.05714,1.24474,1,1,52333.9,48976.5,1696,0.72487503,5.1730652,87.129974,104.94246,9.14832,362.194,-22.57,30.2326,29.3934,28.4349
1980-07-07 02:46:24,1,2.11429,-1.05714,-6.97143,0.833238,1,1,62594.1,50313.4,1696,0.72488177,5.172986,87.118469,104.94269,8.55559,385.086,-17.645,40.1114,32.1458,28.8204
1980-07-07 02:47:45,1,0.328571,-0.285714,-7.54286,0.595219,1,1,63643.7,44017.4,1696,0.7248885,5.1729069,87.103088,104.94292,7.58035,395.396,-29.1039,43.4328,32.4142,26.9569
1980-07-07 02:49:06,1,5.58333,-2.91667,-4.16667,1.30576,1,1,53934.2,49586.1,1696,0.72490197,5.1727495,87.091827,104.94337,8.09894,370.899,-19.1293,35.0675,29.8394,28.6113
1980-07-07 02:50:27,1,3.56667,-1.8,-6.08333,1.00678,1,1,79622.0,53453.5,1696,0.72490871,5.1726713,87.080353,104.94362,9.04569,378.774,-17.7934,34.451,36.2555,29.7061
1980-07-07 02:51:48,1,4.2,-1.72857,-5.61429,0.831767,1,1,65512.4,39727.4,1696,0.72491544,5.1725922,87.068848,104.94385,8.21733,374.641,-20.3856,34.49,32.8867,25.6096
1980-07-07 02:53:09,1,3.15714,-5.05714,-4.37143,0.432364,1,1,59748.3,46731.2,1696,0.72492892,5.1724348,87.057587,104.94431,8.75527,380.119,4.05475,28.1988,31.4066,27.7755
1980-07-07 02:54:30,1,2.94286,-5.47143,-4.37143,0.499387,1,1,90987.0,36728.5,1696,0.72493565,5.1723557,87.046112,104.94453,8.58837,383.153,0.313558,27.5383,38.7568,24.624
1980-07-07 02:55:51,1,6.84286,-4.58571,3.98571,0.698395,1,1,192603.0,43496.9,1696,0.72494239,5.1722765,87.030731,104.94478,11.0255,359.822,-7.41851,-31.7824,56.3883,26.797
1980-07-07 02:57:12,1,7.4,-3.0,0.466667,0.903081,1,1,46765.6,60636.8,1696,0.72495586,5.1721191,87.01947,104.94524,8.66067,353.045,-4.61553,-4.73998,27.7857,31.6392
1980-07-07 02:58:33,1,4.4,-5.24286,-2.28571,1.26862,1,1,68382.8,42414.1,1696,0.72496259,5.1720409,87.007965,104.94547,7.88169,372.103,11.3287,11.9313,33.5994,26.4614
1980-07-07 02:59:54,1,4.12857,-3.41429,-4.48571,0.651529,1,1,124435.0,42778.5,1696,0.72496933,5.1719618,86.99649,104.94569,8.46939,377.09,-6.58157,22.3269,45.324,26.5748
1980-07-07 03:01:15,1,1.87143,-1.01429,-6.65714,0.329502,1,1,161009.0,35798.3,1696,0.72498274,5.1718044,86.985229,104.94617,8.75169,394.149,-26.5683,27.1616,51.5564,24.3102
1980-07-07 03:02:36,1,1.25714,-0.642857,-6.42857,0.73568,1,1,214116.0,51387.6,1696,0.72498947,5.1717253,86.969849,104.9464,10.2828,396.824,-21.4866,27.0787,59.4542,29.1264
1980-07-07 03:03:57,1,0.342857,0.985714,-5.91429,0.511899,1,1,152317.0,52670.6,1696,0.72499621,5.1716471,86.958344,104.94662,8.9781,395.801,-31.3461,26.0271,50.1455,29.4878
1980-07-07 03:05:18,1,1.0,0.471429,-6.15714,0.549211,1,1,132356.0,52463.4,1696,0.72500968,5.1714897,86.947083,104.94708,10.3772,399.372,-32.1301,27.0203,46.7444,29.4297
1980-07-07 03:06:39,1,1.6125,1.9875,-5.725,0.38931,1,1,115967.0,39462.8,1696,0.72501642,5.1714106,86.935608,104.94731,8.69752,395.051,-44.2767,25.3008,43.7548,25.5242
1980-07-07 03:08:00,1,1.31429,2.38571,-5.7,0.834706,1,1,126557.0,55960.1,1696,0.72502983,5.1712532,86.924347,104.94778,9.56762,394.449,-41.585,28.1129,45.7089,30.3947
1980-07-07 03:09:21,1,1.21429,1.2,-5.81429,0.951476,1,1,184308.0,57838.2,1696,0.72503656,5.171175,86.912872,104.94801,9.72955,393.158,-32.2721,27.3541,55.1608,30.9005
1980-07-07 03:10:42,1,2.48333,3.4,-5.26667,0.791798,1,1,93713.8,44575.8,1696,0.7250433,5.1710958,86.897461,104.94824,8.8411,385.162,-55.0093,29.6083,39.3332,27.1274
1980-07-07 03:12:03,1,1.42857,3.27143,-5.87143,0.635032,1,1,85943.0,57347.9,1696,0.72505677,5.1709385,86.8862,104.9487,8.41537,391.391,-55.5039,33.5405,37.6672,30.7692
1980-07-07 03:13:24,1,2.84286,-0.385714,-6.2,0.980212,1,1,74613.7,36665.0,1696,0.7250635,5.1708603,86.874725,104.94893,6.21075,378.411,-39.8433,34.5516,35.0968,24.6027
1980-07-07 03:14:45,1,4.0,-3.41429,-4.81429,2.00204,1,1,43583.8,26237.4,1696,0.72507018,5.1707811,86.863251,104.94917,5.39536,371.989,-3.08159,31.4496,26.8238,20.8122
1980-07-07 03:16:06,1,4.48571,-0.942857,-5.48571,0.740105,1,1,42521.0,37482.2,1696,0.72508365,5.1706238,86.85199,104.94963,6.35757,366.718,-18.4217,33.7579,26.4947,24.8754
1980-07-07 03:17:27,1,3.7,-2.55714,-5.71429,0.421852,1,1,44413.5,44400.7,1696,0.72509038,5.1705446,86.840485,104.94986,5.77646,372.593,-13.7065,35.5062,27.0779,27.074
1980-07-07 03:18:48,1,4.51667,1.78333,-5.36667,0.615088,1,1,45363.2,47901.1,1696,0.72509712,5.1704664,86.825104,104.95009,7.08665,362.648,-47.7163,30.3806,27.3659,28.121
1980-07-07 03:20:09,1,3.13333,1.55,-6.1,0.809149,1,1,54223.1,36883.6,1696,0.72511059,5.1703091,86.813843,104.95056,5.66956,384.193,-35.5157,36.8284,29.9192,24.676
1980-07-07 03:21:30,1,2.6,1.73333,-6.31667,0.65341,1,1,47650.8,45360.4,1696,0.72511727,5.1702299,86.802368,104.95079,7.25249,386.903,-40.8223,37.9623,28.0474,27.365
1980-07-07 03:22:51,1,4.42857,-0.542857,-5.77143,0.637598,1,1,46156.2,35370.2,1696,0.725124,5.1701517,86.790863,104.95102,5.9593,368.881,-30.2439,34.2151,27.604,24.1644
1980-07-07 03:24:12,1,5.42857,-1.44286,-4.88571,1.50523,1,1,55450.0,29618.9,1696,0.72513747,5.1699944,86.779602,104.95148,6.0404,376.099,-18.2062,35.5863,30.2558,22.1127
1980-07-07 03:25:33,1,2.21429,-3.31429,-6.35714,1.44095,1,1,37229.5,56058.2,1696,0.72514421,5.1699152,86.764221,104.95171,7.6655,378.232,-2.84568,35.0706,24.7914,30.4213
1980-07-07 03:26:54,-1,nan,nan,nan,nan,1,4,nan,nan,1696,0.72515094,5.169837,86.752716,104.95193,nan,nan,nan,nan,nan,nan
1980-07-07 03:28:15,1,2.53333,-3.15,-6.1,0.569844,1,1,49061.7,49389.5,1696,0.72516435,5.1696796,86.741486,104.95241,6.63628,383.208,-8.42386,39.597,28.4596,28.5545
1980-07-07 03:29:36,1,1.08571,1.87143,-7.04286,0.682433,1,1,118933.0,50999.4,1696,0.72517109,5.1696005,86.72998,104.95264,7.69372,393.83,-39.9944,43.9434,44.3108,29.0162
1980-07-07 03:30:57,1,1.01429,-0.0428571,-7.05714,1.28524,1,1,88494.2,45686.0,1696,0.72517782,5.1695213,86.718506,104.95287,9.01987,394.71,-27.6907,41.5036,38.2222,27.4631
1980-07-07 03:32:18,1,0.857143,1.92857,-6.21429,1.71963,1,1,126859.0,54686.1,1696,0.7251913,5.169364,86.707245,104.95332,9.04154,393.331,-44.8927,31.9731,45.7634,30.0467
1980-07-07 03:33:39,1,-2.5,3.35,-4.2625,0.567753,1,1,164251.0,57437.5,1696,0.72519803,5.1692858,86.691833,104.95355,10.6854,415.071,-50.2409,19.8295,52.073,30.7933
1980-07-07 03:35:00,1,-4.12857,4.34286,-2.94286,0.516661,1,1,94246.5,75502.8,1696,0.72521144,5.1691284,86.680603,104.95403,12.2715,409.208,-40.0268,0.818632,39.4449,35.3053
1980-07-07 03:36:21,1,-4.24286,4.67143,-3.24286,0.318158,1,1,105018.0,64641.7,1696,0.72521818,5.1690493,86.669098,104.95425,11.2531,408.691,-38.4136,2.67878,41.6379,32.6674
1980-07-07 03:37:42,1,-4.81429,4.84286,-2.92857,0.311677,1,1,100251.0,74972.6,1696,0.72522491,5.1689711,86.657623,104.95448,11.6831,409.521,-39.4811,3.1237,40.682,35.1811
1980-07-07 03:39:03,1,-4.275,4.75,-2.9,0.281736,1,1,82204.3,71143.0,1696,0.72523838,5.1688137,86.646362,104.95494,11.8565,407.672,-38.2706,4.37428,36.8388,34.2708
1980-07-07 03:40:24,1,-4.0375,5.2625,-2.7125,0.428114,1,1,98244.3,71945.4,1696,0.72524512,5.1687346,86.634888,104.95518,12.079,405.199,-39.4587,2.48483,40.2728,34.4635
1980-07-07 03:41:45,1,-4.3,5.34286,-2.5,0.311022,1,1,106024.0,56989.0,1696,0.72525179,5.1686563,86.619476,104.95541,10.1702,409.987,-40.2089,6.97703,41.8369,30.6728
1980-07-07 03:43:06,1,-4.48571,5.3,-1.64286,0.144279,1,1,97283.9,74983.5,1696,0.72526526,5.168499,86.608215,104.95587,11.5221,406.957,-42.5958,2.56526,40.0754,35.1836
1980-07-07 03:44:27,1,-4.28571,5.71429,-2.65714,0.686012,1,1,127377.0,52880.4,1696,0.725272,5.1684198,86.596741,104.9561,9.45235,410.366,-44.9497,7.08641,45.8568,29.5465
1980-07-07 03:45:48,1,-4.57143,5.98571,-2.04286,0.29761,1,1,94765.6,69117.6,1696,0.72527874,5.1683407,86.585236,104.95633,9.2741,410.774,-45.8768,4.70924,39.5534,33.7794
1980-07-07 03:47:09,1,-4.275,6.2625,-1.6,0.386288,1,1,95765.8,51049.2,1696,0.72529215,5.1681833,86.574005,104.9568,9.4538,411.332,-46.9632,3.72116,39.7615,29.0304
1980-07-07 03:48:30,1,-4.9,6.78571,-0.9,0.279942,1,1,140802.0,64702.5,1696,0.72529888,5.1681051,86.558594,104.95703,10.6267,412.584,-53.7265,0.758489,48.2128,32.6827
1980-07-07 03:49:51,1,-5.1125,6.8875,-1.575,0.322587,1,1,107645.0,51488.4,1696,0.72530562,5.168026,86.547119,104.95726,8.78124,415.77,-53.2893,7.44186,42.1555,29.155
1980-07-07 03:51:12,1,-4.6875,7.125,0.2625,0.427566,1,1,121740.0,66457.9,1696,0.72531909,5.1678686,86.535858,104.95772,10.7998,412.958,-50.832,-1.43397,44.8306,33.1231
1980-07-07 03:52:33,1,-4.82857,6.87143,-0.628571,0.359137,1,1,98523.6,53790.7,1696,0.72532582,5.1677904,86.524353,104.95795,8.95434,414.424,-50.8144,5.48981,40.33,29.7997
1980-07-07 03:53:54,1,-2.74286,5.94286,-3.2,0.4463,1,1,111380.0,56593.6,1696,0.72533256,5.1677113,86.512878,104.95818,9.46081,394.917,-38.479,23.6664,42.8806,30.5662
1980-07-07 03:55:15,1,-2.31429,5.58571,-3.27143,0.33197,1,1,104643.0,37645.5,1696,0.72534597,5.1675539,86.501617,104.95865,7.49576,392.5,-44.7199,24.5663,41.5637,24.9295
1980-07-07 03:56:36,1,-1.62857,5.08571,-3.88571,0.429523,1,1,128385.0,52959.4,1696,0.7253527,5.1674757,86.486237,104.95888,9.53617,412.292,-61.0836,25.736,46.0379,29.5685
1980-07-07 03:57:57,1,5.6,-3.67143,-2.08571,1.59923,1,1,37647.8,38788.1,1696,0.72535944,5.1673965,86.474731,104.95911,6.06245,366.598,-8.75681,26.7575,24.9303,25.3051
1980-07-07 03:59:18,1,5.98571,-5.94286,-0.0142857,1.37914,1,1,32206.3,39553.3,1696,0.72537291,5.1672392,86.46347,104.95956,6.59425,363.752,15.9097,-8.191,23.0583,25.5534
1980-07-07 04:00:39,1,6.72857,-5.04286,-0.8,0.584494,1,1,39376.0,47404.5,1696,0.72537965,5.167161,86.451996,104.95981,8.91736,360.234,2.10731,5.46713,25.4961,27.9748
1980-07-07 04:02:00,1,6.35714,-5.47143,-0.385714,0.302372,1,1,37185.1,46672.8,1696,0.72539306,5.1670027,86.440735,104.96027,7.89244,360.928,3.45057,4.86188,24.7766,27.7581
1980-07-07 04:03:21,1,6.18333,-3.73333,-3.28333,0.449073,1,1,39432.1,52510.1,1696,0.72539979,5.1669245,86.42926,104.96049,8.56246,361.931,-3.17143,21.735,25.5142,29.4428
1980-07-07 04:04:42,1,6.35,-2.85,-3.56667,0.836992,1,1,43118.0,43994.5,1696,0.72540653,5.1668453,86.413849,104.96072,7.95509,355.965,-13.2973,22.4973,26.6801,26.9499
1980-07-07 04:06:03,1,5.86667,-2.26667,-3.95,0.812575,1,1,43756.4,49827.6,1696,0.72541994,5.166688,86.402588,104.96118,8.19099,359.098,-14.8965,27.2657,26.8769,28.6809
1980-07-07 04:07:24,1,4.98333,-0.583333,-4.91667,0.770822,1,1,44669.6,55879.0,1696,0.72542667,5.1666098,86.391113,104.96141,7.36166,366.268,-20.8577,35.3226,27.1559,30.3726
1980-07-07 04:08:45,1,5.62857,-1.85714,-4.84286,0.85093,1,1,38100.3,48455.5,1696,0.72543341,5.1665306,86.379608,104.96164,7.96741,361.996,-20.6681,33.9854,25.0797,28.2833
1980-07-07 04:10:06,1,5.34286,-4.18571,-4.1,0.571429,1,1,38867.9,46127.3,1696,0.72544682,5.1663733,86.368347,104.9621,6.25999,363.765,-1.33116,26.2674,25.3311,27.5954
1980-07-07 04:11:27,1,6.5,-5.41429,-2.32857,0.239898,1,1,30845.2,45075.1,1696,0.72545356,5.1662941,86.352966,104.96233,6.69352,362.759,5.92657,17.742,22.5659,27.2789
1980-07-07 04:12:48,1,6.12857,-4.94286,-2.74286,0.368117,1,1,33562.7,43699.5,1696,0.72546029,5.1662159,86.341492,104.96257,7.02892,360.801,7.01238,13.5777,23.5389,26.8594
1980-07-07 04:14:09,1,5.8,-5.93333,-1.53333,0.31798,1,1,39158.9,39875.4,1696,0.7254737,5.1660585,86.330231,104.96303,6.7381,363.199,13.2452,8.85292,25.4257,25.6573
1980-07-07 04:15:30,1,5.01667,-7.18333,-1.35,0.385501,1,1,35571.9,44817.2,1696,0.72548044,5.1659794,86.318726,104.96326,7.48845,372.763,20.4998,8.62556,24.2332,27.2007
1980-07-07 04:16:51,1,6.85714,-5.97143,-1.37143,0.621716,1,1,34191.3,39567.1,1696,0.72548717,5.1659012,86.307251,104.96349,7.68463,360.362,8.5512,6.37605,23.7583,25.5579
1980-07-07 04:18:12,1,6.16667,-6.06667,-1.21667,0.670199,1,1,39614.4,44925.0,1696,0.72550058,5.1657438,86.29599,104.96394,7.3258,362.393,10.4536,11.2273,25.5732,27.2334
1980-07-07 04:19:33,1,5.07143,-5.02857,-3.71429,0.328882,1,1,33543.9,40544.9,1696,0.72550732,5.1656647,86.280579,104.96417,7.73102,364.168,5.06317,25.7772,23.5323,25.8718
1980-07-07 04:20:54,1,4.58571,-5.45714,-3.11429,1.26459,1,1,33490.9,35981.6,1696,0.72551405,5.1655855,86.269104,104.9644,5.72506,375.888,11.0869,29.4354,23.5137,24.3724
1980-07-07 04:22:15,1,4.27143,-6.72857,-2.35714,0.573923,1,1,45115.2,37628.7,1696,0.72552747,5.1654282,86.257843,104.96486,7.39072,370.782,17.831,14.4408,27.291,24.924
1980-07-07 04:23:36,1,3.92857,-7.17143,-2.98571,0.62073,1,1,28141.2,35539.5,1696,0.7255342,5.16535,86.246338,104.96509,7.21834,382.03,17.8893,23.3611,21.5541,24.2222
1980-07-07 04:24:57,1,3.48571,-6.22857,-4.2,0.723371,1,1,40887.0,29130.5,1696,0.72554094,5.1652708,86.234863,104.96533,5.9392,380.935,9.2165,29.1797,25.9807,21.9296
1980-07-07 04:26:18,1,4.02857,-7.57143,-1.98571,0.437059,1,1,27484.4,36358.0,1696,0.72555435,5.1651134,86.219696,104.96579,7.11621,376.286,20.4833,9.66119,21.3011,24.4996
1980-07-07 04:27:39,1,3.74286,-7.47143,-2.5,0.596589,1,1,46030.4,38419.7,1696,0.72556108,5.1650352,86.208221,104.96602,7.44689,380.237,18.6086,15.2754,27.5664,25.1846
1980-07-07 04:29:00,1,7.48333,-3.1,-2.7,1.78178,1,1,28736.8,41612.8,1696,0.72557449,5.1648779,86.19696,104.96648,6.21582,355.142,0.00582975,18.5049,21.7809,26.2103
1980-07-07 04:30:21,1,7.91667,-2.9,-2.48333,0.784927,1,1,36909.8,44440.4,1696,0.72558123,5.1647987,86.185455,104.96671,7.5587,346.947,-17.7792,11.1508,24.6848,27.0861
1980-07-07 04:31:42,1,7.21429,-3.24286,-3.07143,0.884792,1,1,31831.1,46186.4,1696,0.72558796,5.1647196,86.173981,104.96693,6.88076,351.082,-13.071,20.3484,22.9236,27.6131